Wind_Speed
25 24 23 22 20 21 24 25 23 22 21 21 21 22 21 20 19 19 19 18 17 16 18 19 19 18 17 16 15 14 14 14 13 12 12 12 12 10 9 10 10 11 10 9 10 9 9 9 9 8 8 9 11 9 7 6 6 5 5 6 6 7 8 7 7 10 14 12 10 10 9 9 10 9 9 10 8 6 8 10 11 13 14 15 16
23 24 24 23 20 19 21 25 25 23 22 21 21 22 22 21 20 20 19 19 19 18 18 19 19 18 17 18 17 16 16 15 15 15 14 13 13 12 12 12 11 11 11 10 11 11 10 9 10 10 10 10 11 11 10 8 7 8 8 9 9 9 9 10 10 11 14 15 14 13 11 10 12 11 10 9 8 8 9 11 14 14 14 14 15
18 20 22 22 22 19 18 22 24 25 25 23 22 22 22 23 21 20 20 20 20 19 19 19 19 17 17 17 17 17 18 18 16 16 16 15 14 14 14 14 13 12 12 11 11 12 11 10 10 11 11 10 11 11 11 10 10 10 11 11 13 13 12 12 14 15 16 16 15 15 14 13 13 13 12 12 12 12 12 13 14 14 13 13 13
18 19 21 21 22 21 19 19 19 22 26 25 23 22 21 23 23 22 21 20 21 22 21 21 20 19 19 19 18 18 19 20 19 17 18 17 17 16 15 15 15 15 15 14 14 14 14 13 12 12 12 12 12 12 11 12 12 13 12 12 12 14 14 14 14 15 16 16 15 15 14 14 15 16 16 17 16 15 14 14 14 14 14 14 13
15 17 18 18 20 21 20 18 16 17 21 23 23 23 22 22 23 24 24 22 22 22 23 24 23 22 22 21 21 20 20 21 21 20 19 19 18 18 16 16 17 17 17 17 16 15 15 15 14 14 14 14 14 15 14 13 13 14 15 13 12 12 13 14 13 13 13 15 16 16 15 15 16 17 17 18 19 17 14 13 14 14 14 14 14
9 12 13 14 17 18 18 18 15 13 15 18 19 19 21 24 24 24 25 25 24 23 24 25 25 24 24 23 22 22 22 22 23 22 21 20 20 19 18 18 18 18 18 17 16 16 16 16 16 16 16 16 16 16 16 15 15 15 16 15 14 14 13 14 14 15 15 15 16 16 17 16 17 19 18 17 19 19 17 17 17 16 15 15 15
6 7 9 10 12 13 15 16 15 14 14 16 15 13 13 17 22 25 27 27 25 24 24 26 27 26 25 25 25 24 24 24 24 24 23 21 21 21 21 20 19 19 19 19 18 17 17 18 18 18 18 18 19 18 17 17 17 17 17 17 16 16 16 15 15 16 16 17 18 18 19 19 19 20 18 16 17 17 18 19 19 19 18 16 15
7 6 8 8 9 10 12 13 12 12 14 15 16 15 11 11 13 19 25 29 30 27 25 26 28 29 28 27 27 27 26 26 25 25 25 24 23 23 23 23 22 22 21 21 21 20 20 20 20 20 20 20 20 20 20 19 19 19 19 19 18 18 18 19 18 17 16 17 18 19 19 20 20 19 17 15 14 16 18 19 20 21 21 19 17
9 7 7 7 7 7 8 9 10 10 11 12 13 15 15 13 13 12 16 24 30 31 29 27 27 29 30 29 29 29 30 29 28 27 27 26 26 25 25 26 25 25 24 24 23 23 22 22 22 22 23 23 22 22 21 21 21 21 21 21 21 20 20 21 21 21 19 18 18 17 17 17 18 17 16 16 17 20 22 22 22 23 23 21 19
14 13 11 8 6 3 2 6 8 6 4 6 9 12 16 18 15 12 10 13 19 25 29 29 29 29 31 31 31 31 32 32 31 31 30 30 29 28 28 27 27 27 27 26 25 25 24 24 24 23 24 24 24 24 24 24 24 24 23 22 22 22 22 22 22 22 22 22 22 21 18 18 20 20 20 21 22 22 23 23 22 22 21 19 18
19 18 16 14 12 10 7 4 2 2 2 2 7 11 16 20 19 15 13 12 12 15 20 22 23 25 29 33 33 32 33 34 33 32 32 32 32 32 31 31 29 28 29 29 29 28 27 26 26 25 25 25 25 25 25 25 26 27 26 25 25 24 23 23 24 23 23 22 23 22 21 21 24 25 24 24 23 23 24 20 15 13 13 12 13
21 21 20 18 18 16 14 12 8 5 3 1 6 9 11 16 18 17 17 16 13 13 16 18 18 17 20 28 34 34 34 34 34 33 32 32 32 33 34 34 33 32 30 30 31 30 30 29 28 27 26 25 24 24 24 25 26 28 28 28 28 28 27 26 25 25 24 23 23 23 23 24 26 26 26 25 23 22 22 19 14 13 12 12 12
21 20 20 21 20 18 16 14 13 10 7 3 3 7 10 14 17 17 17 17 15 14 16 19 20 18 16 19 27 34 35 34 34 33 32 32 32 33 34 35 35 36 35 33 33 32 32 32 31 31 30 29 27 26 26 26 26 27 28 30 31 31 30 30 29 28 27 27 26 26 27 27 27 28 29 27 24 21 21 22 22 20 18 17 18
20 19 19 20 19 18 16 12 10 10 8 6 5 5 8 11 14 16 16 15 16 16 18 21 23 23 20 18 19 26 32 34 34 35 34 32 31 32 35 36 36 36 37 36 36 35 34 34 34 34 34 33 32 32 31 30 29 28 27 29 32 33 33 33 33 32 31 31 30 31 32 31 31 32 32 29 27 26 25 26 25 24 23 22 23
19 18 17 17 17 17 16 12 8 8 8 7 6 6 8 10 13 15 16 16 16 17 19 21 22 24 25 23 19 19 23 25 27 30 33 35 34 33 34 37 38 37 37 37 37 37 36 35 35 35 35 35 35 34 33 33 33 32 30 29 30 32 34 35 35 35 35 35 35 35 35 35 35 36 36 33 31 29 28 27 26 24 23 23 23
18 18 17 16 16 15 14 13 10 9 9 8 7 8 8 11 13 15 16 17 17 18 18 19 20 21 24 25 22 21 20 20 18 18 21 26 32 36 37 38 38 38 38 37 37 37 37 36 35 35 35 35 35 34 34 34 34 33 32 32 31 31 33 34 35 36 36 36 37 36 36 36 36 37 38 38 36 34 31 28 26 24 23 23 23
16 17 17 15 16 15 12 12 12 12 12 11 10 10 10 11 13 14 15 15 15 16 17 18 19 20 21 22 22 21 21 21 20 19 17 17 20 26 33 37 39 39 39 39 38 38 37 36 35 34 33 33 32 31 31 32 33 34 33 33 32 32 34 34 34 35 36 37 37 36 35 34 33 33 35 36 38 38 34 28 26 25 23 19 19
14 16 16 14 15 16 13 12 14 15 14 14 12 12 13 14 14 13 12 13 13 13 15 16 17 18 19 19 19 19 19 20 22 26 27 25 22 21 23 28 33 37 39 40 39 39 39 38 37 36 36 35 34 33 31 30 31 33 33 32 32 32 34 34 33 34 34 34 34 34 33 31 29 29 29 30 32 35 34 33 30 26 22 19 19
12 15 15 13 13 15 14 13 13 14 13 13 12 10 11 13 13 12 11 11 12 12 12 14 15 16 16 16 15 14 17 21 25 29 31 32 31 29 26 24 28 33 37 38 38 39 39 39 39 38 38 37 36 36 34 33 33 34 34 33 32 33 34 34 32 32 32 32 32 32 32 31 30 30 30 29 28 30 33 36 34 30 26 25 25
11 13 13 13 12 13 13 13 13 13 11 11 11 10 9 10 11 11 11 11 11 11 11 12 13 14 13 13 12 13 17 21 23 26 28 29 31 33 32 29 28 30 34 35 36 37 38 39 40 40 40 40 39 38 38 36 36 37 36 34 34 35 35 34 33 32 31 32 32 32 31 31 31 31 31 31 30 30 31 33 33 33 31 29 28
9 11 11 11 13 13 13 13 14 14 12 12 13 13 13 12 12 11 11 12 12 11 11 12 13 14 13 12 12 14 19 21 20 21 24 25 26 29 32 32 32 31 31 32 34 36 37 38 39 40 41 41 41 40 40 39 38 39 40 39 40 40 38 35 34 33 32 32 32 31 31 31 30 31 31 31 31 31 31 31 32 33 33 32 31
8 10 8 8 11 14 14 14 14 14 15 16 16 15 15 15 14 12 10 11 12 11 11 12 12 13 13 13 13 15 19 20 19 19 20 21 23 25 27 30 31 29 29 30 32 33 34 36 37 39 39 39 39 38 38 37 37 39 41 43 44 43 41 39 37 34 32 31 31 30 30 30 30 30 30 31 31 31 31 32 32 32 33 34 34
10 10 7 5 9 12 14 15 15 14 16 17 17 16 16 16 15 13 11 10 10 11 11 11 11 11 11 12 13 14 16 17 17 18 18 19 22 25 27 28 28 26 28 31 32 33 34 34 35 37 38 37 37 37 37 36 36 38 40 42 43 43 42 41 39 35 33 30 28 28 29 28 28 28 28 30 31 32 32 33 33 33 33 34 35
13 10 6 7 9 10 11 14 15 15 17 16 15 15 16 17 15 12 9 9 10 11 12 12 12 12 12 13 14 13 14 17 18 19 20 19 19 21 24 27 28 27 29 31 33 35 36 34 33 33 34 35 36 35 35 35 35 35 36 37 39 40 41 41 40 36 33 30 28 28 29 28 28 27 27 27 27 29 31 33 33 33 33 34 35
14 12 9 9 9 8 10 12 13 14 15 15 15 15 15 17 16 11 9 9 11 12 13 13 13 13 13 14 15 14 15 16 17 17 18 19 18 18 19 21 24 26 28 31 33 34 36 36 33 30 28 29 31 32 34 35 35 34 33 33 33 34 37 39 38 35 32 31 30 30 30 30 29 29 29 27 26 26 27 30 31 33 33 34 35
16 14 13 11 9 9 10 12 12 13 14 14 14 14 14 16 16 13 9 10 11 12 13 13 14 15 15 15 16 16 16 16 16 15 15 16 17 18 19 21 22 23 25 29 31 32 35 37 37 35 32 30 29 30 32 33 32 32 32 31 30 30 31 34 35 33 32 32 32 31 31 30 29 30 29 29 29 28 27 28 29 30 31 32 33
16 16 15 13 10 10 11 12 12 13 14 13 12 12 13 16 17 15 14 15 15 15 15 16 17 18 18 17 17 18 19 19 19 18 16 16 16 17 18 21 22 22 23 25 26 28 29 31 33 35 36 37 37 37 37 36 35 33 33 32 31 31 30 31 31 31 32 33 32 31 31 29 28 28 28 28 30 31 30 30 30 30 30 29 29
16 16 16 16 13 10 10 11 12 12 13 13 13 13 15 16 17 18 18 18 18 17 17 19 20 20 20 20 21 21 22 21 20 19 18 18 17 16 16 18 19 20 22 22 23 23 24 25 26 28 29 32 34 34 35 37 36 35 33 33 33 34 34 33 32 32 32 33 32 31 29 28 27 28 28 28 29 29 29 30 31 33 33 31 29
16 16 15 16 16 12 9 10 11 11 12 13 15 16 16 16 17 19 18 17 17 18 20 21 20 19 21 23 23 23 25 24 22 21 20 20 20 21 21 22 22 22 22 22 22 24 25 25 25 26 25 25 25 26 26 27 29 29 29 29 30 32 33 34 35 35 35 34 34 33 31 29 28 27 25 25 26 26 26 27 29 31 31 31 31
15 16 15 16 17 15 12 11 11 10 11 13 15 16 17 16 16 18 19 18 17 18 19 20 19 19 23 27 26 25 27 27 25 22 21 20 20 22 24 26 27 28 28 26 26 28 29 28 26 25 24 23 23 23 23 22 22 23 24 25 27 29 30 32 34 35 35 34 34 34 32 30 28 25 23 25 26 24 23 24 26 27 28 29 30
13 15 16 17 18 17 13 9 7 7 9 11 14 17 19 19 18 17 17 17 17 18 18 18 19 22 25 28 28 27 27 26 25 23 22 23 23 23 24 25 27 28 28 27 28 30 29 26 26 25 24 23 24 23 22 21 20 21 21 23 24 26 28 31 32 32 33 33 33 33 32 31 30 29 28 28 25 21 20 22 24 26 27 28 30
13 14 15 16 17 16 11 7 6 6 8 11 14 17 20 21 19 17 16 17 17 18 18 19 22 24 25 26 28 28 27 25 25 24 24 24 24 22 23 24 25 26 25 25 27 29 27 24 25 26 25 25 26 25 23 21 20 19 20 22 23 24 26 28 30 31 31 31 31 32 33 34 34 33 30 27 22 20 24 26 26 26 27 28 30
14 15 15 16 17 17 13 9 8 9 11 14 16 16 17 17 17 18 20 21 20 21 22 22 23 24 23 23 24 26 25 24 25 26 25 23 21 21 23 24 24 24 25 25 27 28 26 24 25 27 25 25 26 25 23 22 20 19 20 22 24 24 24 24 24 26 29 30 30 31 32 32 30 27 25 22 21 25 31 32 29 25 24 24 27
14 14 14 14 16 16 13 9 9 11 12 13 13 11 11 13 14 18 21 23 24 27 28 25 22 21 22 24 24 24 23 25 27 27 23 21 21 22 24 25 24 22 23 24 26 28 27 25 25 27 26 27 27 26 25 24 21 20 22 23 25 25 24 21 18 19 23 26 27 28 28 26 22 21 21 21 23 29 33 32 27 22 22 24 26
14 14 13 13 13 11 9 7 8 9 8 8 8 9 10 12 15 17 20 22 24 26 28 27 24 22 23 25 26 27 26 27 27 26 22 20 21 22 23 25 24 22 21 22 23 26 27 26 26 26 26 26 26 26 27 27 25 25 25 26 27 27 26 25 25 26 26 25 25 25 25 21 20 20 22 23 25 29 30 29 26 25 26 28 29
15 14 12 10 9 8 7 7 7 7 7 9 11 13 14 15 16 18 20 22 24 25 26 27 27 26 26 27 27 26 24 21 20 20 20 20 21 21 22 24 24 23 22 21 22 24 24 24 24 25 25 25 25 26 26 27 26 26 27 28 29 29 29 29 31 32 30 26 24 23 21 19 21 23 24 26 29 30 29 29 30 31 30 29 28
16 14 12 10 9 8 8 9 8 8 9 11 12 13 14 15 16 17 18 20 22 23 25 26 27 27 26 24 20 18 17 17 18 20 22 22 22 22 23 24 24 24 24 22 20 20 20 20 20 21 22 22 23 24 25 26 27 27 28 28 29 29 30 31 32 31 28 25 23 21 18 18 20 23 25 29 32 32 31 32 33 31 29 27 26
15 15 14 13 11 9 9 8 8 8 9 10 11 12 13 14 16 17 18 19 21 22 24 24 24 24 22 20 18 19 21 23 24 24 24 25 26 26 25 24 22 21 20 19 19 20 20 20 20 19 19 19 19 19 19 21 23 25 26 27 27 27 26 26 26 24 23 23 22 21 20 20 22 24 27 31 33 32 31 30 28 26 25 25 26
14 15 16 16 15 13 11 10 9 10 11 11 12 12 13 15 16 17 17 18 19 21 22 22 22 21 21 22 24 26 26 26 26 25 25 27 28 28 25 22 20 19 20 21 22 22 23 23 23 23 23 22 20 19 18 17 17 18 18 18 19 18 19 19 19 19 20 21 22 21 21 22 25 27 29 32 33 30 25 21 20 23 26 27 26
14 14 16 17 17 16 14 12 12 12 11 11 11 12 13 15 16 17 17 18 18 19 20 21 22 22 21 23 24 24 24 24 24 24 24 25 26 25 23 21 21 21 22 22 23 23 23 25 25 26 26 25 24 22 21 20 20 18 17 16 14 13 13 13 13 14 16 18 19 20 21 24 26 26 28 31 29 23 18 18 20 25 29 30 30
14 14 15 16 17 16 15 13 14 14 14 14 14 15 15 15 16 16 17 17 18 18 19 20 22 22 22 22 23 22 22 23 23 22 21 22 22 22 22 23 23 23 22 23 24 24 24 25 25 25 25 25 25 24 23 23 22 21 20 19 17 15 14 12 11 10 9 9 9 12 17 22 25 26 28 28 24 20 19 20 23 26 29 31 32
15 15 16 16 16 16 15 14 14 15 16 17 17 16 16 16 16 16 17 17 18 19 19 19 21 22 22 22 21 21 22 23 22 21 21 21 22 24 26 27 26 25 24 25 25 25 24 24 24 23 23 24 24 24 24 23 23 22 21 21 19 17 16 15 15 14 11 9 8 8 10 14 17 20 22 22 20 19 20 21 23 26 27 30 31
16 16 15 15 16 16 16 15 15 16 16 17 17 16 17 17 17 18 18 18 18 19 19 19 19 20 21 21 20 20 22 23 24 24 24 24 26 28 30 30 29 28 27 26 25 24 24 24 23 22 22 23 23 23 23 22 22 21 21 21 19 18 17 16 16 16 14 13 12 12 12 13 15 17 19 19 18 19 19 19 21 24 26 29 30
15 15 15 15 16 17 17 17 17 17 17 18 18 18 17 17 17 18 17 17 18 18 18 18 17 18 19 20 20 21 22 24 26 28 28 27 27 28 28 28 28 28 28 27 26 25 24 23 23 23 22 22 22 21 21 21 20 19 19 19 19 18 18 17 17 17 16 16 15 15 15 16 18 18 20 21 20 19 20 21 22 24 26 28 28
16 15 15 16 16 17 18 18 17 17 17 18 18 18 18 18 18 19 18 18 19 18 17 16 16 16 17 19 19 20 22 23 25 25 25 25 25 25 25 26 27 28 28 28 27 26 24 23 22 22 22 22 21 20 20 20 19 18 18 19 18 18 18 17 17 18 19 19 18 18 17 18 19 20 21 22 21 20 21 24 27 27 27 28 29
17 16 16 16 16 16 17 17 17 16 16 17 17 18 18 18 18 19 19 19 19 18 17 16 16 16 17 18 18 19 21 22 23 23 23 24 25 25 25 26 26 26 27 27 27 25 23 22 21 21 22 21 20 19 19 20 20 19 18 18 18 19 19 19 19 20 20 20 20 20 19 19 20 21 21 22 23 23 24 27 29 29 28 29 30
17 16 16 15 16 16 16 16 16 16 16 16 16 17 17 17 18 18 19 18 17 16 15 15 15 16 17 17 18 18 19 21 22 23 23 24 24 24 24 25 25 26 26 27 26 24 23 22 22 21 20 20 19 18 19 20 20 19 17 16 16 17 17 17 17 17 18 18 19 19 18 18 19 19 19 20 21 23 25 27 28 28 28 29 30
16 15 15 15 16 17 16 16 17 16 16 16 17 17 18 18 17 17 17 16 15 14 13 14 16 16 16 16 17 17 18 20 22 22 22 22 23 23 24 24 25 25 25 25 25 23 22 22 21 19 17 17 17 17 17 19 20 19 17 15 15 15 15 16 16 15 14 14 15 15 16 16 16 16 16 17 19 21 23 25 26 26 27 27 28
14 14 15 15 15 16 16 16 16 16 16 16 17 17 18 17 15 14 15 15 14 14 14 15 16 17 17 17 18 18 18 19 21 22 22 23 23 24 24 24 24 23 23 24 23 22 20 19 19 18 18 18 18 17 18 19 20 18 15 14 13 13 12 13 14 14 13 12 11 11 12 13 14 14 14 15 17 20 22 23 25 25 25 26 26
13 14 15 15 15 16 17 17 16 15 16 17 17 17 16 15 14 13 14 14 14 14 14 14 15 16 16 17 18 18 18 19 21 22 22 22 22 22 22 21 21 21 21 20 19 18 18 18 19 19 20 21 21 21 21 20 18 15 13 12 11 10 10 11 11 12 11 10 9 8 9 11 13 13 14 15 16 17 19 21 22 23 24 24 25
12 12 13 14 15 16 17 17 17 17 18 18 17 16 14 14 14 14 14 14 14 14 14 14 15 15 15 16 17 18 19 20 20 20 20 19 19 19 19 18 18 18 17 16 15 16 18 19 20 19 19 19 19 18 17 16 14 12 11 10 9 7 8 9 9 9 8 8 8 7 8 9 11 11 11 12 12 12 13 14 15 15 15 15 15
Wind_Direction
188 189 194 195 200 204 204 205 206 207 209 210 211 210 210 212 210 208 210 208 207 212 213 210 209 209 210 212 215 217 217 218 221 222 224 226 223 224 232 236 237 236 235 230 228 239 251 248 251 253 249 253 253 262 276 260 240 238 236 242 257 263 264 263 263 278 292 302 307 304 305 314 316 307 299 297 289 283 287 290 298 303 299 293 288
187 191 193 193 195 202 206 207 207 207 209 213 216 214 212 215 214 211 213 213 209 213 217 212 210 212 214 214 214 218 223 222 220 223 227 230 228 222 226 238 243 239 239 238 231 238 250 250 248 250 252 256 253 252 257 258 251 243 242 244 247 251 252 253 256 267 280 290 298 301 300 306 307 304 308 307 296 294 295 291 293 296 297 294 289
198 197 196 196 196 198 201 205 210 210 209 213 218 217 213 215 217 215 216 218 213 213 216 212 210 214 217 217 216 219 225 225 220 220 226 230 233 229 225 230 237 237 239 243 241 241 246 251 252 247 246 250 253 254 251 250 253 254 255 250 243 244 246 248 252 255 260 271 283 290 290 293 294 293 297 298 295 293 289 289 289 284 285 291 290
210 205 204 205 204 204 198 199 210 214 211 212 217 219 218 217 219 220 218 220 218 216 216 216 216 219 220 219 219 222 226 226 221 220 225 229 234 236 231 227 231 236 239 241 243 244 244 247 250 248 247 245 248 254 253 249 252 258 269 268 255 251 249 247 255 259 258 263 272 280 283 286 290 294 297 297 297 295 287 289 291 283 282 289 287
210 210 214 213 210 213 209 204 212 221 218 215 216 219 221 220 222 222 219 220 221 219 219 221 221 222 223 223 222 223 226 227 225 222 223 228 234 240 238 231 231 238 242 243 244 245 244 246 247 246 247 247 246 249 251 251 253 259 268 272 269 265 259 256 264 269 265 265 272 278 283 289 295 297 298 297 297 297 289 285 290 288 285 287 282
195 211 220 217 215 220 220 214 214 224 227 219 217 223 225 224 224 223 221 221 222 222 220 221 223 222 223 225 225 226 228 229 230 228 226 227 232 239 242 237 235 238 242 245 247 246 245 247 249 248 247 248 248 248 248 249 252 255 260 264 268 273 273 271 272 274 271 269 273 280 285 289 292 293 297 298 295 293 288 284 284 282 281 286 282
162 189 206 214 223 228 226 221 218 225 227 218 220 232 235 234 231 226 222 220 222 225 224 222 222 223 224 224 225 228 229 231 232 232 231 230 231 236 240 240 239 239 240 242 245 247 247 248 251 251 250 250 250 250 250 250 252 254 255 257 259 264 270 272 269 270 271 271 271 274 277 281 283 287 295 299 295 290 285 281 279 279 283 287 282
138 158 180 197 218 225 224 224 224 229 228 223 228 237 251 279 270 241 226 219 218 222 226 224 222 222 223 225 226 228 229 230 232 233 234 233 232 234 238 239 240 241 241 241 242 243 247 249 251 251 251 251 251 250 250 249 249 251 253 254 253 254 259 264 265 265 266 267 266 266 269 273 275 279 284 285 285 286 284 281 278 282 287 287 282
98 111 136 164 188 209 220 224 226 231 232 233 237 239 246 275 297 276 238 222 217 218 221 224 223 221 222 225 227 228 228 229 231 233 235 236 234 235 237 239 240 241 242 243 244 244 246 248 250 252 253 253 253 251 250 248 246 246 247 248 248 248 251 257 260 259 257 259 263 266 268 269 269 271 273 274 280 285 287 285 281 281 283 281 278
72 74 82 94 108 128 191 218 219 223 244 248 246 246 244 250 269 277 250 227 222 218 218 221 222 221 220 222 225 226 226 228 230 232 234 237 238 236 237 239 241 240 240 242 243 245 246 247 248 251 254 257 257 255 253 251 248 247 245 244 244 244 245 249 253 254 252 253 256 260 263 265 268 270 272 276 280 282 285 286 284 282 280 275 272
66 67 67 65 66 66 63 70 168 177 52 279 248 249 246 247 260 267 246 230 228 225 223 224 227 227 222 220 222 225 225 226 229 232 233 236 238 238 238 240 242 243 242 240 242 244 246 247 248 249 252 255 257 259 260 258 255 252 249 245 244 244 243 244 247 250 250 250 252 254 255 259 265 268 270 273 274 276 279 281 281 282 277 270 270
63 62 59 58 58 58 60 62 64 72 71 299 258 259 254 251 259 266 253 240 236 235 233 233 239 244 237 226 221 222 226 227 228 232 234 235 237 239 240 241 242 244 244 243 243 244 245 246 248 250 251 253 256 260 263 263 260 257 254 249 245 244 244 244 246 247 247 248 249 251 252 256 261 264 266 267 268 271 274 272 273 277 274 265 264
56 54 53 54 56 56 59 61 59 59 60 37 295 274 268 260 259 262 258 249 249 250 241 235 238 248 259 250 232 225 226 229 230 231 233 235 237 239 240 241 242 243 244 244 245 246 246 247 248 249 251 253 256 260 263 265 266 263 259 253 248 245 245 246 248 249 250 250 249 251 255 257 258 261 264 264 263 264 267 269 274 276 274 272 274
48 46 47 49 51 52 52 53 52 45 39 34 16 328 294 279 270 268 267 264 263 258 244 233 233 238 250 265 257 237 230 230 233 233 234 235 237 238 239 240 241 242 243 244 245 246 247 248 249 251 252 253 255 257 260 263 267 269 266 259 252 249 247 247 248 249 250 251 250 253 257 258 258 262 266 265 261 261 263 267 270 271 272 276 280
43 40 40 40 42 45 46 48 48 30 12 3 358 349 332 313 297 284 276 272 269 263 251 240 237 239 243 252 265 261 244 235 235 237 238 239 239 239 239 239 239 241 243 244 245 246 248 249 251 253 255 256 256 256 257 259 261 265 267 266 262 257 253 251 250 251 251 252 253 255 259 261 261 263 265 264 261 261 263 265 269 273 276 279 281
39 32 31 31 29 32 35 37 39 29 17 3 336 323 319 316 315 305 287 274 266 265 264 259 253 251 250 251 259 267 260 248 243 247 250 248 244 242 241 239 238 239 241 243 244 245 247 249 251 253 254 255 256 256 257 257 257 258 260 263 264 263 260 259 258 257 256 256 257 259 262 266 267 268 268 266 262 261 263 266 269 273 276 277 276
38 27 23 23 21 20 21 22 22 21 22 14 352 332 322 315 316 312 299 286 276 268 267 266 260 256 254 252 255 264 268 261 254 258 267 269 262 254 247 243 240 240 241 243 244 245 246 246 248 251 253 254 255 256 256 255 254 254 254 257 260 261 262 263 262 261 260 260 260 262 266 270 273 273 273 271 267 264 261 262 267 270 271 271 268
39 25 17 14 14 16 17 14 10 9 13 14 3 346 336 329 320 311 299 292 289 283 277 273 268 262 258 254 254 264 273 268 255 249 252 257 263 267 262 254 248 246 244 243 243 244 245 246 247 249 252 255 257 258 258 255 253 252 252 253 254 255 258 260 260 259 259 260 261 263 266 269 270 271 272 272 271 266 259 257 261 264 264 264 264
33 17 13 11 10 10 13 13 8 1 359 2 1 351 340 329 316 306 301 293 289 290 288 281 276 272 267 263 262 267 270 265 256 249 247 248 250 255 260 259 255 251 249 247 245 244 245 246 247 248 251 254 256 257 258 257 255 253 252 251 250 251 254 257 256 256 256 257 259 261 263 266 269 270 271 270 270 267 262 259 259 256 256 259 262
22 7 7 10 6 3 6 6 3 357 348 341 339 337 335 329 316 309 314 312 299 291 288 284 278 276 274 269 264 262 261 262 262 259 256 254 252 253 256 257 256 252 250 249 248 246 246 247 248 249 250 252 253 255 256 256 256 255 253 250 249 251 254 255 255 255 255 256 259 261 263 267 270 271 272 272 271 268 265 263 260 256 252 253 257
10 357 360 2 357 358 1 356 350 350 346 337 329 326 327 333 333 327 324 323 317 303 292 287 280 276 276 271 261 256 257 261 266 267 263 259 257 255 255 255 255 254 251 250 250 248 247 247 248 250 252 253 254 255 256 257 257 257 254 252 252 255 257 256 256 257 256 257 259 260 262 265 268 269 271 272 272 270 268 266 264 260 255 251 251
0 345 345 352 349 349 352 349 344 343 344 342 338 335 333 332 335 340 340 332 327 321 311 302 293 281 273 269 261 256 259 263 266 267 267 263 258 256 256 256 255 253 252 251 251 251 250 249 250 252 254 256 257 258 260 261 260 259 258 257 257 258 258 258 258 258 256 256 256 258 260 263 266 268 269 270 270 271 269 267 266 264 261 257 254
346 332 330 354 353 345 345 345 341 338 340 340 337 337 338 333 327 331 345 346 340 338 336 328 317 304 292 284 272 261 261 264 262 261 263 264 261 260 260 258 255 256 256 254 251 251 252 254 256 256 256 257 258 260 262 264 263 262 261 261 261 261 261 260 259 258 256 255 255 256 259 262 265 267 267 268 269 269 268 268 267 266 265 264 263
337 331 339 356 348 336 336 338 336 335 337 335 330 329 337 341 332 318 325 348 357 357 356 350 338 326 317 309 299 287 278 271 265 260 260 262 266 267 265 260 257 258 260 258 254 252 252 254 258 260 259 258 259 260 261 261 261 261 262 263 263 263 262 260 259 258 257 255 254 254 255 258 261 264 266 269 272 271 269 268 267 266 266 266 267
340 340 344 340 331 324 323 325 326 328 328 327 328 330 336 346 346 333 325 346 357 355 354 353 346 337 328 319 313 308 299 289 281 273 264 262 266 270 270 267 264 261 260 259 257 255 253 251 253 256 258 257 256 257 256 256 258 261 263 265 265 264 263 261 259 258 257 255 253 253 254 255 258 261 265 269 272 273 271 268 265 264 263 264 265
337 335 330 321 316 316 316 316 317 319 319 325 337 342 341 344 349 350 345 347 347 342 339 339 336 331 325 321 317 313 307 301 295 288 278 271 272 272 273 275 273 270 266 263 261 260 259 257 256 256 258 258 258 258 258 258 260 263 264 266 267 268 268 265 261 257 255 255 254 253 254 257 258 261 264 266 267 268 269 269 267 263 260 258 259
331 328 323 315 309 308 311 312 308 307 315 326 340 346 340 335 337 339 336 333 330 327 326 323 321 319 315 313 313 312 309 305 300 294 289 286 285 284 281 280 277 275 275 274 271 268 266 266 265 264 263 263 264 265 265 264 265 265 265 266 266 268 271 273 268 260 255 255 256 256 257 258 259 260 261 262 263 265 266 268 268 267 264 262 260
324 322 320 315 309 300 300 306 307 311 321 325 328 331 329 325 324 323 321 320 317 315 315 315 313 311 309 308 307 307 306 306 306 304 299 291 287 286 285 284 282 281 284 287 287 282 277 274 271 269 268 269 271 272 271 269 268 269 269 269 269 270 271 274 273 266 258 254 254 255 256 255 255 256 257 258 261 264 266 267 268 268 269 268 265
322 320 316 313 308 299 289 294 306 321 332 326 319 318 319 318 317 314 311 311 309 304 304 305 306 306 306 305 303 301 299 301 307 311 306 298 291 286 284 284 284 284 286 290 291 290 289 284 278 272 271 274 278 280 278 275 274 272 271 270 270 270 271 270 267 264 260 255 251 250 251 251 252 253 255 257 260 263 266 267 268 269 270 268 267
316 316 313 310 307 298 281 273 283 301 318 322 318 315 312 310 309 308 307 308 308 305 301 297 298 303 306 304 300 296 294 296 304 310 312 310 304 295 288 284 282 281 281 283 283 283 283 282 280 275 272 272 273 275 277 278 276 274 273 271 267 265 265 263 261 259 258 255 251 249 248 249 250 251 251 254 258 261 263 265 267 268 268 266 266
309 310 310 311 310 301 281 261 269 287 297 306 309 309 306 304 304 306 306 307 309 310 307 300 298 300 302 302 300 297 294 295 299 305 309 311 311 306 299 292 287 284 283 283 282 278 274 272 272 271 269 266 265 266 267 268 270 274 276 274 270 264 258 255 255 255 253 251 250 248 247 246 245 244 244 246 249 254 258 261 261 260 259 259 260
309 309 308 307 310 308 291 262 263 279 281 289 296 298 299 302 308 311 309 307 308 309 307 304 301 299 298 297 297 296 297 298 300 302 304 308 312 313 308 302 297 294 290 286 283 280 275 268 265 266 265 262 260 260 259 259 263 271 274 271 269 265 260 257 256 253 248 247 247 245 244 243 242 241 240 239 237 242 248 249 246 245 247 250 252
305 305 305 304 306 308 301 279 270 279 286 289 289 288 292 303 315 318 311 305 304 306 307 306 304 302 302 302 300 298 298 301 302 302 303 307 313 318 316 312 308 301 294 287 283 282 280 272 266 265 264 264 266 266 264 261 261 263 264 264 265 265 265 265 261 252 246 244 244 243 244 246 246 246 244 238 236 242 247 247 244 241 243 247 250
310 301 299 297 298 301 299 288 283 287 289 287 286 288 296 305 313 316 314 311 310 310 312 312 310 310 310 310 307 305 303 303 303 303 304 309 314 318 319 317 315 311 304 296 287 282 279 275 270 268 266 266 268 269 268 266 263 258 258 261 264 264 264 262 258 253 249 244 241 242 245 247 247 248 244 238 238 243 247 249 248 245 244 246 248
325 313 303 298 300 304 306 307 306 305 302 301 303 308 308 305 303 307 310 312 310 309 309 311 312 312 310 307 307 306 304 300 298 299 303 311 315 318 321 321 320 320 318 311 301 291 283 276 272 271 269 267 267 267 267 265 262 258 256 258 260 261 260 258 257 259 259 257 253 253 252 246 241 241 241 237 234 236 240 246 248 246 244 244 246
336 328 318 311 312 318 319 319 318 315 309 309 312 312 308 305 305 306 304 302 301 300 302 306 308 308 305 305 307 306 303 299 298 301 307 314 318 322 326 327 325 321 317 315 312 306 298 290 283 279 275 272 270 268 267 266 263 259 256 255 255 256 258 260 262 263 264 265 264 262 257 250 242 240 239 237 236 235 236 239 242 242 242 242 246
340 336 329 322 318 319 319 318 314 307 302 304 308 309 306 304 302 299 296 294 295 298 300 304 307 309 308 308 309 309 308 310 311 311 313 317 320 325 329 330 326 318 312 313 317 318 315 311 306 299 292 286 280 275 271 269 267 264 260 257 256 254 254 257 260 262 264 267 267 262 254 249 246 241 236 236 238 238 236 236 239 242 243 243 247
340 340 341 341 336 330 325 320 314 308 306 305 303 300 298 296 294 290 287 288 291 295 298 301 307 312 316 319 321 321 321 321 320 319 318 318 320 325 328 329 327 322 319 321 325 326 324 322 320 318 316 311 304 296 287 279 274 270 267 265 262 258 255 255 256 258 261 266 268 265 256 249 244 241 238 238 238 235 232 235 243 248 248 247 247
346 344 343 344 345 342 336 326 314 305 299 297 294 291 290 290 288 285 285 287 289 293 296 300 305 310 316 322 326 328 328 328 328 328 325 321 321 324 326 324 322 323 324 324 325 325 324 320 316 314 315 315 315 313 308 301 291 282 275 272 271 268 266 265 264 265 266 266 266 263 253 240 235 234 235 237 236 231 231 240 252 254 252 249 246
350 343 337 333 333 334 331 324 316 310 306 304 303 302 300 297 292 290 288 287 288 291 296 300 304 305 309 316 323 328 330 331 330 329 327 324 324 325 325 322 322 324 325 325 323 322 321 319 317 313 310 309 310 310 310 309 306 299 289 280 275 272 271 271 269 269 270 267 263 257 245 233 229 229 230 232 235 239 248 258 259 255 252 250 246
346 340 333 326 323 322 321 316 313 314 315 314 313 310 306 301 296 294 292 290 289 292 294 296 298 300 304 309 314 318 322 327 329 328 326 325 324 322 321 322 325 327 327 325 324 322 319 317 316 314 311 308 306 306 306 306 307 306 302 294 285 276 271 268 266 268 272 272 266 254 240 232 229 228 230 235 245 256 262 261 256 252 250 249 248
345 337 326 319 314 311 310 309 309 310 310 309 306 304 303 303 301 299 297 295 294 294 292 291 293 296 300 303 305 306 311 318 322 324 322 319 315 313 314 316 320 321 321 320 320 320 317 315 314 313 311 308 305 304 303 303 302 303 303 301 298 291 282 273 268 268 268 266 260 249 238 234 232 231 236 246 258 264 262 261 259 256 252 250 250
341 330 318 312 310 309 308 307 308 308 308 306 304 303 303 304 302 299 296 293 293 292 290 290 293 297 299 300 299 299 301 306 311 315 316 313 310 308 307 309 311 313 314 314 315 316 314 312 311 310 308 306 304 302 300 299 300 299 299 298 297 295 290 283 276 272 267 261 256 251 248 248 249 250 256 263 270 272 271 270 266 261 255 253 251
335 323 312 308 308 308 306 304 303 302 302 302 301 301 301 301 300 298 297 297 298 296 292 291 293 296 298 298 298 298 300 303 305 307 307 305 304 303 302 304 306 307 308 309 311 313 313 311 310 310 309 308 307 304 300 298 297 296 295 296 295 294 293 291 284 277 270 266 262 259 257 257 257 258 262 264 266 268 268 266 263 258 253 249 248
332 319 310 307 305 303 301 299 298 298 299 299 299 300 300 299 299 299 298 299 300 297 292 291 292 293 295 295 296 298 300 301 300 300 299 300 301 302 302 303 304 305 306 307 309 311 312 312 311 310 310 310 309 306 303 301 298 292 289 288 287 287 287 285 280 276 274 273 270 266 263 261 258 258 259 259 258 255 253 254 256 256 252 249 247
325 314 308 305 303 301 300 302 303 303 301 299 298 298 297 297 298 299 299 298 297 294 290 290 292 293 293 294 294 293 292 293 294 296 297 299 301 302 303 303 303 304 305 306 308 310 311 310 308 307 306 307 308 307 305 303 300 297 293 288 284 282 280 279 279 278 277 276 274 269 265 261 258 258 257 256 254 250 247 248 250 251 251 252 252
315 310 306 304 304 305 306 309 310 308 306 305 304 301 299 299 299 299 298 296 294 291 290 291 292 292 291 291 290 287 285 286 290 293 296 298 301 302 302 301 302 303 304 305 307 308 307 305 304 304 304 307 311 312 308 302 300 300 301 297 294 291 289 290 290 286 279 275 271 267 262 257 255 255 253 250 250 250 249 250 253 254 255 258 260
307 306 307 308 308 309 310 311 311 310 310 310 309 306 303 302 300 299 299 299 297 295 295 296 297 296 295 292 290 289 288 287 288 291 295 297 298 299 299 300 301 303 305 305 306 307 306 305 305 306 307 309 310 308 305 302 301 302 304 304 304 304 304 304 304 300 291 281 273 267 262 256 251 250 248 245 244 246 248 250 253 255 257 260 262
314 315 318 318 315 314 315 315 315 316 317 315 311 308 305 303 302 302 304 304 304 303 304 305 304 302 298 294 292 290 289 289 289 290 293 295 295 296 299 302 303 304 305 306 307 308 305 302 301 301 300 299 298 295 297 299 300 301 305 309 312 314 315 313 309 305 300 291 277 264 259 256 253 253 252 248 245 245 246 247 249 251 253 255 256
328 325 324 324 322 323 325 324 322 323 323 318 313 311 310 310 312 313 311 310 310 310 308 306 303 298 295 293 293 292 291 290 290 291 293 295 297 298 300 302 305 307 307 307 308 307 302 300 302 302 299 296 293 292 292 294 295 299 305 312 317 320 319 315 309 305 300 291 275 261 255 254 254 253 251 247 244 244 245 247 249 249 250 252 253
331 324 325 327 327 328 329 328 327 327 325 320 317 317 317 317 318 317 315 314 313 309 304 299 296 293 291 291 291 291 291 290 288 290 292 293 295 296 296 298 302 307 307 306 307 307 306 305 306 304 299 297 296 294 291 290 291 296 304 312 317 320 319 317 315 311 301 288 275 265 258 253 249 246 242 238 236 236 238 241 244 243 242 242 243
Height
825 828 830 832 835 836 838 840 842 846 847 849 851 851 853 854 855 857 858 859 861 862 863 864 866 867 868 870 870 871 872 872 872 873 873 874 874 874 874 874 874 874 874 874 874 874 873 873 873 873 873 873 873 873 873 874 874 873 873 874 874 874 874 874 874 873 871 871 872 871 871 871 870 870 870 869 868 868 867 866 866 865 864 863 863
825 826 827 830 833 835 837 838 840 843 845 848 849 850 852 853 854 856 856 858 859 860 862 862 864 865 866 868 869 870 870 871 872 872 872 873 873 873 874 874 874 873 873 873 873 873 873 872 872 872 872 872 872 872 872 872 873 873 872 873 873 873 873 873 873 872 871 870 870 870 870 870 869 869 869 868 868 867 866 866 865 864 864 863 862
825 826 826 828 831 832 835 837 839 841 843 846 848 849 851 852 853 854 855 856 858 859 860 861 862 863 864 866 867 868 869 869 870 870 871 871 871 872 872 872 873 872 872 872 872 872 872 871 871 871 871 871 871 871 871 870 871 871 871 871 871 871 871 872 872 871 870 870 869 869 869 869 869 868 868 868 867 866 865 865 864 863 862 862 861
824 824 825 826 828 830 832 834 837 840 841 843 845 847 849 851 852 853 854 855 856 857 858 860 861 862 862 864 865 866 866 867 868 868 869 870 870 870 871 871 871 871 871 871 871 871 870 870 870 870 870 870 869 869 869 869 869 869 869 870 870 870 870 870 870 870 870 869 869 869 869 868 868 867 867 866 865 865 864 863 863 862 861 861 860
822 822 823 825 827 829 831 833 836 839 841 842 844 846 848 849 850 851 852 853 854 855 856 857 859 860 861 862 863 863 864 865 866 866 867 868 868 868 869 869 869 869 869 869 869 869 869 868 868 868 868 868 868 868 868 868 868 868 867 868 868 868 868 868 868 868 868 868 867 867 867 867 867 866 866 865 864 863 863 862 862 861 860 860 859
821 822 822 824 826 828 830 832 835 837 840 841 843 845 846 848 848 849 850 851 852 852 853 854 856 857 858 859 861 862 862 863 864 864 865 866 866 867 867 867 868 867 867 867 867 867 867 866 866 866 866 866 866 866 866 866 866 866 866 866 866 866 866 866 866 866 866 866 866 866 865 865 865 864 864 864 862 861 861 860 860 860 859 858 857
820 821 822 823 825 828 830 832 834 835 838 839 841 843 845 846 847 847 848 849 850 850 850 851 852 854 855 857 858 859 860 861 862 862 863 864 865 865 865 865 866 865 865 865 865 865 865 865 865 864 864 864 864 864 864 864 864 864 864 864 864 864 864 864 864 864 864 864 864 863 863 863 863 862 862 862 861 860 859 858 858 857 857 857 856
819 820 821 822 825 828 830 831 832 833 835 837 838 840 842 844 845 844 845 845 846 847 848 848 849 850 852 853 855 856 858 859 860 860 861 862 863 863 863 863 864 863 864 863 863 863 863 863 863 863 862 862 862 862 862 862 862 862 862 862 862 862 862 862 862 862 862 862 861 861 861 861 861 860 860 860 859 858 857 857 856 855 855 855 854
820 820 821 822 824 826 828 829 830 831 833 834 836 837 839 841 842 842 842 841 842 843 844 845 846 847 848 849 851 853 854 855 856 857 858 859 860 861 861 861 861 861 861 861 861 861 861 861 861 860 860 859 859 859 859 859 859 859 859 859 860 860 860 860 860 860 860 859 859 859 859 859 858 858 858 857 857 856 855 855 854 853 853 853 853
821 821 822 823 824 825 826 827 828 830 831 832 832 834 836 838 839 840 840 839 840 840 840 841 842 843 844 846 847 849 850 851 852 854 855 856 857 858 859 859 859 859 859 859 859 858 858 858 858 858 858 857 857 856 856 856 856 856 856 856 857 857 857 857 857 857 857 857 856 857 856 856 856 856 856 855 855 854 854 853 852 851 851 851 851
822 822 823 824 824 825 826 826 827 828 829 830 830 831 833 834 835 837 838 838 838 838 839 839 840 840 841 842 843 844 845 846 848 850 851 853 854 855 856 857 857 857 857 856 856 856 856 856 855 855 855 855 854 854 854 854 854 854 854 854 854 854 854 855 855 855 855 854 854 854 854 853 853 853 853 853 853 853 852 852 851 850 850 850 849
823 823 824 825 825 825 826 826 827 827 828 828 828 829 831 832 833 835 835 836 837 837 838 839 839 840 840 840 840 840 841 843 844 846 847 849 851 852 852 853 854 854 854 854 854 853 853 853 853 853 853 853 852 852 852 851 851 851 851 851 851 852 851 852 852 852 852 852 852 852 852 851 851 851 851 851 851 851 850 850 850 849 849 848 848
825 825 825 825 825 826 826 826 827 827 827 827 827 828 829 830 831 832 832 833 834 835 837 837 837 838 839 839 839 838 838 840 842 843 844 845 847 848 849 850 850 851 851 851 851 851 851 851 850 850 850 850 850 850 849 849 849 848 848 848 848 849 849 849 849 849 849 849 849 849 848 849 848 848 848 849 849 849 849 848 848 847 847 846 846
826 826 826 826 826 826 827 827 827 827 827 827 827 827 828 829 830 830 831 831 832 832 833 834 834 834 835 836 837 837 837 838 839 841 841 842 843 844 845 846 846 847 847 848 848 848 848 848 847 847 847 847 847 847 847 847 846 846 846 846 846 846 846 846 846 846 846 846 846 845 845 846 845 844 845 846 847 847 846 846 846 845 845 845 844
827 827 827 827 827 826 827 827 828 828 828 827 827 826 827 827 828 829 829 829 829 829 830 830 830 830 831 833 835 835 836 837 838 839 840 840 841 841 842 842 842 843 843 844 844 844 844 845 844 844 844 844 844 844 844 844 844 843 843 842 842 842 842 843 843 843 843 842 842 841 841 842 842 841 842 843 844 844 844 844 844 844 843 843 843
828 827 827 827 827 827 827 827 828 829 829 827 826 826 826 826 826 828 828 828 827 827 827 827 827 828 829 831 832 833 834 836 837 838 838 839 839 839 839 839 839 839 840 840 840 841 841 841 841 841 840 840 840 840 841 841 841 840 839 839 839 838 838 838 839 839 839 839 838 838 838 838 839 839 839 840 840 841 842 842 842 843 842 841 840
829 828 828 827 827 828 828 828 829 829 828 827 826 826 826 825 825 826 827 826 825 825 824 824 825 826 827 828 829 830 832 833 834 834 834 835 836 837 837 837 836 836 835 836 837 837 837 838 838 838 837 837 837 837 838 838 837 836 836 835 835 834 833 834 835 835 835 835 835 835 835 836 836 836 836 836 836 838 839 839 840 841 840 839 838
832 831 830 829 829 829 829 828 828 827 826 826 826 825 825 825 825 825 826 825 824 824 823 823 823 824 825 825 826 827 828 829 828 827 827 828 829 830 832 833 833 833 832 831 832 833 833 834 834 835 834 834 834 834 835 835 834 833 832 832 831 830 829 830 831 831 831 831 832 832 832 832 833 832 832 833 833 835 836 836 837 838 838 837 836
833 833 832 831 831 830 830 830 829 828 827 828 828 829 829 828 828 827 826 824 823 822 822 822 822 822 823 823 824 824 824 823 823 822 822 824 824 824 825 826 827 828 828 828 828 828 829 829 830 831 831 831 831 831 831 832 830 829 829 828 827 825 825 826 826 827 827 827 828 828 828 828 829 829 829 829 830 831 831 831 833 835 835 834 834
834 834 833 832 832 832 831 831 831 830 830 830 831 832 832 831 830 827 824 822 821 820 820 820 820 820 821 821 822 822 821 819 819 820 821 823 823 823 823 823 822 822 823 824 824 823 823 824 825 825 826 826 826 827 827 827 826 825 825 824 822 820 821 822 823 823 824 824 824 825 825 825 826 826 826 826 827 828 828 828 829 830 831 831 831
835 834 833 832 832 831 831 831 831 830 830 830 830 830 829 828 826 825 822 821 820 819 819 819 819 819 819 819 819 819 818 817 818 818 818 819 820 820 819 819 819 819 819 819 820 819 819 819 819 819 820 820 821 822 822 823 823 822 821 820 817 817 818 819 819 820 820 820 821 822 822 822 823 823 823 824 824 825 825 825 825 826 826 827 827
835 835 834 833 832 831 830 830 829 829 828 827 827 826 825 824 823 822 821 819 818 818 818 818 818 818 818 818 818 818 817 817 816 816 815 815 816 815 815 815 816 816 815 815 816 816 816 815 815 815 815 816 816 817 817 818 819 818 817 816 815 816 817 816 816 817 817 817 818 818 819 819 820 820 821 821 822 822 822 822 822 822 822 822 822
835 834 834 833 832 831 830 829 828 828 827 826 825 825 824 823 822 821 820 819 818 818 818 818 818 818 817 817 817 817 816 815 815 814 813 813 813 812 812 812 813 813 812 811 811 812 812 812 812 812 812 812 812 813 813 813 814 814 813 813 814 815 816 815 815 814 814 814 814 815 815 816 817 817 818 818 819 819 819 819 819 819 819 819 818
835 834 833 833 832 832 831 829 828 827 826 826 825 824 823 823 822 821 820 820 819 819 818 818 817 817 817 816 815 816 815 814 813 812 811 811 811 810 810 810 810 810 809 807 806 807 807 808 808 809 809 809 809 809 809 809 809 809 810 811 812 813 814 813 813 813 812 812 811 811 811 812 813 814 815 816 816 817 816 816 816 816 816 815 815
834 833 833 832 831 831 830 829 828 826 825 825 824 823 823 822 821 821 820 820 820 819 818 818 817 817 816 815 814 814 813 812 811 811 810 809 808 808 808 807 807 807 806 804 804 804 803 804 804 805 805 805 805 805 805 804 805 805 807 808 808 809 809 809 810 811 810 809 808 807 807 808 810 811 812 813 814 814 814 814 814 813 813 812 812
834 833 832 831 831 830 830 829 828 827 826 825 824 823 822 822 821 821 821 820 820 819 818 817 817 816 815 814 813 813 811 810 809 809 808 807 806 806 806 806 806 805 804 802 802 801 801 800 801 801 801 801 801 801 801 801 801 802 803 804 805 805 806 806 806 807 806 806 805 805 805 806 807 808 809 811 811 811 812 812 811 811 811 810 809
833 832 832 831 830 830 829 828 827 826 825 825 824 823 822 821 821 821 821 821 820 819 818 817 816 815 814 812 812 811 810 809 807 806 806 805 805 805 804 804 804 803 802 801 800 799 798 798 797 797 797 797 797 797 796 797 797 797 798 800 801 801 802 803 803 803 803 802 802 802 803 804 804 805 806 807 806 807 809 809 808 807 808 808 806
833 832 831 830 830 829 828 828 827 825 824 824 823 823 822 822 821 820 820 820 819 818 818 816 815 814 813 811 810 808 807 807 806 805 805 804 803 803 802 802 801 801 800 800 799 797 796 795 794 793 793 792 791 792 792 792 793 793 794 795 797 797 798 799 799 799 799 799 799 799 799 799 799 800 801 801 802 804 806 807 806 805 806 806 804
832 832 831 829 829 828 828 827 826 825 824 823 823 823 822 822 821 820 819 819 819 818 817 815 814 813 812 810 809 807 805 804 804 805 804 802 802 801 800 799 798 797 797 797 796 794 792 791 790 789 788 788 787 787 788 789 790 790 791 792 792 793 794 794 794 793 793 794 794 793 794 794 794 795 796 797 799 801 803 804 804 804 804 804 801
832 831 830 829 828 827 826 826 825 824 824 824 823 822 821 821 821 819 818 818 817 817 815 814 813 812 810 809 808 806 804 802 802 802 802 800 800 799 797 796 795 794 794 794 792 790 789 788 787 786 785 784 783 783 784 785 786 787 787 788 788 788 788 788 787 787 788 789 789 789 790 790 790 791 792 792 793 796 798 800 800 801 801 801 798
831 830 829 829 828 826 825 825 824 824 824 823 823 821 820 819 819 818 817 816 815 815 814 813 812 811 809 807 805 804 803 801 800 800 799 798 797 796 794 793 792 791 791 790 788 786 786 785 784 783 783 781 780 779 780 781 782 782 783 783 783 783 782 782 781 782 783 783 783 784 785 785 784 783 783 783 785 789 791 791 792 792 793 793 792
829 829 828 828 826 825 825 824 823 823 822 822 822 821 819 818 817 816 816 815 814 813 812 811 810 809 807 805 803 801 800 799 798 797 796 795 794 792 791 790 788 788 788 786 784 783 783 783 781 779 779 778 776 776 776 776 776 777 778 780 780 779 778 777 777 777 777 777 778 778 778 778 777 775 775 776 778 779 778 776 776 777 778 780 781
828 828 827 826 825 824 824 823 822 822 821 820 820 819 819 817 816 814 813 812 811 811 810 809 808 806 804 802 801 799 798 796 796 794 793 792 791 789 787 786 785 785 784 783 781 780 780 780 778 776 776 776 775 774 774 772 771 772 774 775 776 775 775 775 774 774 774 773 773 774 774 775 776 776 776 776 774 772 768 765 767 769 771 772 772
827 826 826 825 824 823 822 822 821 821 820 820 819 818 818 817 815 813 812 810 809 808 807 806 805 803 802 800 799 797 796 794 793 792 791 789 788 786 784 783 782 782 780 779 778 777 777 776 774 773 772 772 772 772 771 770 769 769 770 771 772 772 773 772 771 771 771 770 770 770 771 773 775 776 775 773 769 766 763 763 767 769 768 765 764
826 825 824 823 823 822 821 821 821 820 819 819 818 818 817 816 814 813 812 810 808 806 805 803 802 801 800 799 797 795 794 792 791 790 789 788 786 785 783 781 780 779 777 776 776 774 773 772 771 770 769 768 768 768 767 766 766 766 767 767 767 767 768 768 767 767 767 767 767 767 768 769 770 770 769 766 763 761 761 763 765 765 762 759 758
825 824 823 822 822 821 821 820 820 819 819 818 817 817 816 815 814 812 811 810 808 806 804 802 801 800 799 797 795 793 791 790 789 788 787 786 785 783 781 780 778 777 775 774 774 773 771 770 768 767 766 765 765 764 764 763 763 762 763 762 762 762 763 763 763 762 762 763 764 763 764 765 765 764 761 759 756 755 756 758 757 756 755 755 755
825 824 822 822 821 820 819 819 818 818 818 817 816 815 814 813 812 811 810 809 807 805 803 801 799 798 797 795 793 792 790 789 788 787 786 784 783 782 781 779 778 776 774 773 772 771 770 769 767 766 765 763 762 761 760 760 759 759 759 758 758 758 758 758 758 758 758 759 760 759 760 760 759 758 756 751 747 747 749 751 749 748 750 752 753
824 823 822 821 820 819 819 818 817 817 816 816 815 814 813 812 811 810 809 808 806 804 802 800 799 797 796 794 792 791 789 787 786 785 784 783 781 780 780 778 777 776 774 773 772 770 769 768 766 765 764 762 761 760 759 758 756 756 755 754 754 753 753 753 754 754 754 754 755 755 755 755 754 753 750 746 742 743 744 743 742 743 746 748 749
822 822 821 820 819 818 818 817 816 815 815 814 813 813 812 811 810 809 807 806 804 803 801 799 798 797 795 793 791 789 788 786 785 784 783 782 780 780 779 778 776 775 774 772 771 769 768 766 765 764 763 761 759 758 757 756 755 753 752 751 750 750 750 750 750 750 750 750 750 750 750 749 748 747 745 742 740 741 738 735 735 739 740 742 744
821 821 820 819 819 818 817 816 815 814 813 812 812 811 810 809 808 807 806 804 803 802 800 798 797 795 794 793 791 790 788 787 785 784 783 781 780 779 778 777 775 774 773 771 770 768 767 765 764 762 761 759 758 756 755 754 753 752 750 749 748 747 747 747 747 747 746 746 746 745 745 744 743 742 741 738 737 735 732 729 731 734 735 736 738
820 820 820 819 819 818 816 815 815 813 812 811 810 809 809 808 806 805 804 803 801 800 798 797 795 794 793 792 791 790 789 787 785 784 783 781 780 779 777 776 775 773 772 770 769 767 766 764 762 761 760 758 756 754 753 752 751 750 749 748 746 744 744 744 744 743 743 742 741 741 740 739 738 738 738 736 733 730 728 727 728 730 731 731 732
819 819 818 818 818 816 815 815 813 812 811 810 809 808 807 806 804 804 802 801 800 798 796 795 793 792 791 791 790 789 788 786 785 784 782 780 779 777 776 775 774 773 771 770 768 767 765 763 761 759 758 756 754 753 751 750 748 747 746 746 744 743 741 740 740 740 740 739 739 738 736 736 735 735 734 733 731 729 728 727 728 728 729 728 728
819 818 818 817 816 815 814 813 812 811 810 809 807 806 805 803 802 801 800 799 797 796 794 793 791 790 789 789 788 787 786 785 784 782 780 779 778 776 774 773 772 771 770 769 767 766 764 762 759 757 755 754 752 751 749 748 746 745 744 743 742 741 740 738 737 736 735 735 735 734 733 732 732 731 731 730 729 728 727 727 727 726 726 725 724
818 818 817 817 815 814 813 812 810 809 808 807 805 804 803 801 800 799 797 796 795 793 792 791 789 788 787 786 786 785 784 783 782 780 779 778 776 774 773 771 769 768 767 766 765 764 762 760 758 755 753 752 750 749 747 746 744 743 741 740 738 738 737 736 735 733 731 730 729 729 728 728 727 727 726 726 726 725 725 724 723 722 721 721 721
817 817 816 815 814 813 812 810 809 807 806 805 803 802 801 799 798 796 795 794 792 791 790 789 787 786 786 785 784 783 782 781 780 779 778 776 775 773 771 769 768 766 764 763 762 761 760 758 756 753 751 750 748 746 745 744 742 741 739 737 736 734 733 733 732 730 728 727 725 724 723 722 721 721 721 721 722 722 721 720 719 718 717 717 716
816 816 815 814 813 811 810 809 807 806 804 803 801 800 799 797 796 794 793 791 790 789 788 787 786 785 784 783 782 781 780 779 778 777 776 775 773 771 770 768 766 765 763 761 760 759 757 756 754 752 750 748 746 744 743 741 739 738 736 734 733 731 730 729 728 727 725 724 722 720 719 717 715 715 715 715 716 716 715 714 714 713 713 712 711
815 814 813 812 811 810 808 807 806 804 803 801 800 798 797 795 794 792 791 789 788 787 786 785 784 783 781 781 780 779 778 777 776 775 774 773 771 770 768 766 765 763 761 759 758 757 755 753 752 750 748 746 744 742 741 738 737 735 734 732 730 728 726 725 724 723 722 721 719 717 715 713 711 711 711 711 711 710 709 708 707 707 707 707 705
814 813 812 811 810 808 807 806 804 803 801 799 798 796 795 793 792 790 789 787 786 785 784 783 782 781 780 779 778 777 776 775 774 773 772 771 769 768 766 764 763 762 760 758 756 755 753 751 750 748 746 744 742 740 738 736 735 733 731 730 728 726 724 722 721 719 718 717 715 713 712 710 709 708 707 707 707 706 705 704 703 703 703 702 701
813 812 811 810 809 807 806 804 803 801 800 798 796 795 793 791 789 788 787 785 784 783 781 780 780 779 778 777 776 775 774 773 772 771 770 769 767 766 764 763 762 760 758 756 754 753 751 749 747 746 744 742 740 738 736 735 733 731 729 727 725 724 722 720 718 717 715 713 711 710 708 707 705 704 703 703 703 702 702 701 700 700 699 699 698
812 811 811 809 808 807 805 804 802 800 799 797 795 793 791 789 788 786 785 784 782 781 780 779 778 778 777 776 775 773 772 771 770 769 768 767 766 764 763 761 760 758 756 755 753 751 749 747 745 744 742 740 738 736 734 733 731 730 727 725 723 722 720 718 716 715 713 711 708 707 706 704 702 701 700 699 699 698 697 697 696 696 696 695 694
812 811 810 809 808 806 805 803 801 800 798 796 793 791 789 788 786 785 783 782 781 779 778 777 776 776 775 774 773 772 771 770 769 767 766 765 764 762 761 760 758 756 755 753 751 749 748 746 744 742 740 738 736 734 732 731 730 728 725 723 722 720 718 716 714 713 712 710 707 705 703 701 700 698 697 695 694 693 693 693 693 692 692 692 691